Location: Bishopstone
(51.0167°N, 1.9000°W)
Time: 10:08:25
(UTC+00:00)

SL-8 R/B - Pass Details

Date: 16 September 2019
Orbit: 657 x 667 km, 48.4° (Epoch: 15 October)

Event Time Altitude Azimuth Distance (km) Brightness Sun altitude
Rises 19:39:44 0° 237° (WSW) 2,979 7.6 -13.0°
Reaches altitude 10° 19:42:09 10° 231° (SW) 2,070 6.6 -13.3°
Maximum altitude 19:46:41 44° 160° (SSE) 908 4.1 -14.0°
Enters shadow 19:49:21 22° 99° (E) 1,426 4.8 -14.4°
